User: anonymous   Login
Location: Chevoux
(46.3801°N, 4.9476°E)
Time: 08:46:31
(UTC+00:00)
Language:

Cosmos 1703 - Orbit

View from above orbital plane
View from above orbital plane
View from above satellite
View from above satellite

Ground track
Ground track

The orbit data is extracted from the following two-line orbital elements,

1 16262U 85108A   21102.54357922  .00001135  00000-0  64931-4 0  9999
2 16262  82.4766 318.1327 0012262 148.7438 211.4524 15.11617490929335
Epoch (UTC): 12 April 2021 13:02:45
Eccentricity: 0.0012262
inclination: 82.4766°
perigee height: 523 km
apogee height: 540 km
right ascension of ascending node: 318.1327°
argument of perigee: 148.7438°
revolutions per day: 15.11617490
mean anomaly at epoch: 211.4524°
orbit number at epoch: 92933

The dashed part of the orbit path shows where the satellite is in the earth's shadow,  

DLR